Location: Sewell
(39.7660°N, 75.1450°W)
Time: 19:36:30
(UTC-04:00)

ISS - Visible Passes

Search period start: 29 July 2016 00:00
Search period end: 08 August 2016 00:00
Orbit: 401 x 404 km, 51.6° (Epoch: 29 July)

Date Brightness Start Highest point End Pass type
(mag) Time Alt. Az. Time Alt. Az. Time Alt. Az.
29 Jul 0.3 00:37:27 10° N 00:38:08 10° N 00:38:13 10° N visible
29 Jul -0.6 22:04:51 10° WNW 22:07:25 21° NNW 22:10:00 10° NNE visible
29 Jul 0.2 23:44:05 10° NNW 23:44:49 11° N 23:45:33 10° N visible
30 Jul -1.4 21:11:20 10° W 21:14:19 32° NNW 21:17:19 10° NE visible
30 Jul 0.0 22:50:14 10° NNW 22:51:32 12° N 22:52:49 10° NNE visible
31 Jul 0.3 00:27:44 10° NNW 00:27:59 11° N 00:27:59 11° N visible
31 Jul -0.2 21:56:23 10° NW 21:58:17 14° NNW 22:00:11 10° NNE visible
31 Jul 0.0 23:35:02 10° N 23:35:50 11° N 23:36:37 10° NNE visible
01 Aug -0.5 21:02:38 10° WNW 21:05:05 19° NNW 21:07:32 10° NNE visible
01 Aug 0.0 22:41:53 10° NNW 22:42:32 10° N 22:43:09 10° N visible
02 Aug 0.3 00:17:54 10° NNW 00:17:57 10° NNW 00:17:57 10° NNW visible
02 Aug -0.1 21:48:05 10° NNW 21:49:13 11° N 21:50:20 10° NNE visible
02 Aug -0.2 23:25:15 10° NNW 23:26:41 13° N 23:26:41 13° N visible
03 Aug -0.3 20:54:12 10° NW 20:55:57 14° NNW 20:57:41 10° NNE visible
03 Aug -0.2 22:32:34 10° N 22:33:30 11° N 22:34:26 10° NNE visible
04 Aug -0.1 21:39:35 10° N 21:40:12 10° N 21:40:48 10° N visible
04 Aug -0.4 23:15:23 10° NNW 23:16:46 16° N 23:16:46 16° N visible
05 Aug -0.3 20:45:55 10° NNW 20:46:53 11° N 20:47:51 10° N visible
05 Aug -0.6 22:22:44 10° NNW 22:24:27 13° NNE 22:25:33 12° NE visible
06 Aug -0.4 21:30:04 10° NNW 21:31:09 11° N 21:32:15 10° NNE visible
06 Aug -0.6 23:05:34 10° NW 23:06:56 19° NNW 23:06:56 19° NNW visible
07 Aug -0.3 20:37:12 10° N 20:37:51 10° N 20:38:29 10° NNE visible
07 Aug -1.1 22:12:51 10° NNW 22:15:18 19° NNE 22:15:45 18° NNE visible
